[[{"header":{"parameterUnit":"m.s-1","parameterCategory":1,"la1":30.2991,"la2":30.254,"lo1":-89.0895,"lo2":-89.0444,"dy":0.0017,"dx":0.0017,"nx":28,"ny":28,"refTime":"2025-06-19T09:00:00:Z","depth":0,"parameterNumber":2,"parameterNumberName":"U-component_of_WINDS"},"data":[0,0,0,0,0,0,0,0,0,0,0,0,0,0,0,0,0,0,0,0,0,0,0,0,0,0,0,0,0,0,0,0,0,0,0,0,0,0,0,0,0,0,0,0,0,0,0,0,0,0,0,0,0,0,0,0,0,0,3.877,3.8771,0,3.8885,3.8886,3.8887,3.8822,3.8819,3.8815,3.8812,3.8931,3.8937,3.8943,0,0,0,0,0,0,0,0,0,0,0,0,0,3.8494,3.8499,3.877,3.8771,3.8773,3.8884,3.8886,3.8887,3.8822,3.8818,3.8815,3.8811,3.8929,3.8936,3.8944,0,0,0,0,0,0,0,0,0,0,0,0,0,3.8611,3.8501,3.877,3.8754,3.8753,3.8884,3.8886,3.8888,3.8823,3.8818,3.8814,3.8809,3.8927,3.8936,3.8945,3.9098,0,0,3.8973,3.8977,0,0,0,0,0,0,0,0,3.8605,3.8622,3.8755,3.8755,3.8755,3.8834,3.8832,3.8958,3.8824,3.8797,3.8812,3.8807,3.8903,3.8914,3.8946,3.9104,3.9109,3.8974,3.8979,3.8983,3.8986,0,0,0,0,0,0,0,3.8597,3.8616,3.8815,3.8757,3.8757,3.874,3.8752,3.8856,3.8875,3.8799,3.8794,3.8809,3.8902,3.8937,3.8948,3.911,3.8974,3.8982,3.8987,3.8991,3.9395,3.94,0,0,0,0,0,0,3.859,3.861,3.8812,3.8819,3.8666,3.8749,3.8762,3.8813,3.8874,3.8879,3.8813,3.8805,3.8924,3.8937,3.8952,3.9132,3.8983,3.8992,3.8997,3.939,3.9396,3.9402,0,0,0,0,0,0,3.8584,3.8608,3.8807,3.8713,3.8737,3.8759,3.8817,3.8818,3.8853,3.8885,3.8888,3.8845,3.892,3.8939,3.9061,3.9135,3.8996,3.9004,3.9384,3.9392,3.9399,3.9495,0,0,0,0,0,0,3.8576,3.8607,3.8666,3.8715,3.8742,3.8915,3.8822,3.8824,3.8869,3.886,3.8916,3.892,3.8918,3.9048,3.907,3.9145,3.9012,3.9377,3.9387,3.9397,3.9486,3.9506,3.9523,0,0,0,0,0,3.8567,3.869,3.8669,3.8694,3.8817,3.8919,3.8935,3.893,3.8876,3.8934,3.8954,3.8918,3.9124,3.9061,3.9086,3.9165,3.9372,3.9384,3.9396,3.9477,3.9502,3.9522,0,0,0,0,0,0,3.865,3.8696,3.8674,3.8816,3.8864,3.8908,3.8982,3.8956,3.9021,3.901,3.9001,3.9014,3.914,3.9165,3.9094,3.9314,3.924,3.9257,3.9293,3.9316,3.9335,3.9325,3.9019,0,0,0,0,0,3.8684,3.8764,3.88,3.8922,3.8947,3.8961,3.9005,3.8997,3.9046,3.9067,3.9095,3.9145,3.922,3.927,3.9341,3.9489,3.9499,3.9556,3.9574,3.9589,3.9604,3.968,3.9705,3.944,3.944,3.944,0,0,3.8757,3.8792,3.8843,3.8939,3.8976,3.9057,3.8978,3.9069,3.9129,3.9081,3.9196,3.9219,3.9274,3.9408,3.9469,3.9433,3.9679,3.9604,3.9616,3.9622,3.9694,3.9719,3.9742,3.9448,3.9447,3.9445,0,0,3.8931,3.8967,3.907,3.9107,3.9162,3.917,3.9195,3.9243,3.9255,3.9371,3.9335,3.9407,3.9538,3.9577,3.9614,3.9799,3.9767,3.9823,3.9918,3.9993,4.0013,4.0032,4.0095,4.0118,3.9837,3.9838,3.9838,0,3.9014,3.9136,3.9127,3.9219,3.9261,3.922,3.9323,3.936,3.9437,3.9466,3.9424,3.9585,3.9619,3.976,3.9805,3.9838,3.9864,3.9816,4.0011,4.003,4.0047,4.0106,4.013,3.9844,3.9843,3.9842,3.9842,0,3.9234,3.9318,3.9396,3.9468,3.9519,3.9617,3.9622,3.9675,3.9661,3.9673,3.979,3.9829,3.9905,3.9939,3.9928,4.0078,4.0053,4.0012,3.9936,4.0078,4.0134,4.0157,3.9852,3.985,3.9848,3.9847,0,0,3.9463,3.9527,3.9556,3.9586,3.9643,3.9708,3.9803,3.9877,3.992,3.9974,4.0052,4.0162,4.0123,4.0165,4.0157,4.0223,4.0363,4.0173,4.0174,4.0204,4.0527,4.0555,4.0582,4.0343,4.0347,4.0351,4.0521,0,3.9638,3.9803,3.9796,3.995,4.0026,3.9987,4.0069,4.0112,4.0125,4.0191,4.0206,4.0282,4.0227,4.0251,4.0315,4.0332,4.0427,4.032,4.0413,4.0417,4.0398,4.0612,4.0644,4.0802,4.0543,4.0547,4.055,0,3.9864,3.9922,4.0083,4.0125,4.0157,4.0231,4.0296,4.036,4.0407,4.0412,4.0457,4.0439,4.0533,4.0456,4.0585,4.0512,4.055,4.0564,4.057,4.0577,4.049,4.0622,4.0853,4.0876,4.0585,4.0582,4.0579,0,4.0011,4.0131,4.0241,4.0269,4.0322,4.0374,4.0398,4.044,4.0484,4.0541,4.0569,4.0637,4.0674,4.0727,4.0726,4.067,4.0855,4.0779,4.0859,4.0859,4.0899,4.0896,4.1136,4.0928,4.0927,4.0927,4.0926,0,4.0205,4.0304,4.0307,4.0375,4.0484,4.0475,4.0583,4.0602,4.064,4.0709,4.0681,4.0747,4.0743,4.0809,4.081,4.0914,4.0932,4.0937,4.0935,4.0938,4.0937,4.0961,4.0949,4.0933,4.0932,4.093,4.0929,0,4.0388,4.0394,4.0511,4.055,4.0562,4.064,4.0673,4.0737,4.0746,4.0835,4.0855,4.0871,4.0947,4.0952,4.1041,4.1041,4.1166,4.1154,4.115,4.1147,4.1226,4.1217,4.1488,4.1522,4.1294,4.1296,4.1298,0,4.051,4.0585,4.0631,4.0675,4.0701,4.0774,4.0817,4.0811,4.0857,4.0914,4.0971,4.1044,4.1102,4.1226,4.1245,4.1312,4.1299,4.139,4.1309,4.1308,4.1297,4.1291,4.1297,4.1405,4.1407,4.1409,4.1411,0,4.0725,4.0723,4.0787,4.0851,4.0903,4.0954,4.1001,4.1039,4.1038,4.1091,4.1168,4.1213,4.1302,4.1375,4.1439,4.1463,4.1437,4.1436,4.1458,4.146,4.1453,4.1454,4.119,4.143,4.1428,4.1426,4.1425,4.1425,4.0879,4.0942,4.0983,4.1054,4.1088,4.1132,4.1192,4.1208,4.1272,4.1343,4.1336,4.1421,4.1463,4.1547,4.1576,4.1641,4.161,4.1643,4.165,4.1658,4.1664,4.1445,4.1654,4.1653,4.1653,4.1652,4.1652,0,4.109,4.1113,4.1179,4.1244,4.1299,4.1268,4.1318,4.1366,4.144,4.1482,4.1539,4.1625,4.1695,4.1718,4.1785,4.1832,4.1821,4.185,4.1845,4.185,4.169,4.1663,4.1857,4.1857,4.1857,4.1857,4.1857,4.1857,4.1205,4.1309,4.1312,4.1432,4.1455,4.1537,4.1567,4.1607,4.1639,4.1737,4.1793,4.1808,4.1841,4.191,4.1971,4.1976,4.2001,4.2034,4.2033,4.1883,4.1862,4.1842,4.1816,4.204,4.204,4.2187,4.2189,4.219]},{"header":{"parameterUnit":"m.s-1","parameterCategory":1,"la1":30.2991,"la2":30.254,"lo1":-89.0895,"lo2":-89.0444,"dy":0.0017,"dx":0.0017,"nx":28,"ny":28,"refTime":"2025-06-19T09:00:00:Z","depth":0,"parameterNumber":3,"parameterNumberName":"V-component_of_WINDS"},"data":[0,0,0,0,0,0,0,0,0,0,0,0,0,0,0,0,0,0,0,0,0,0,0,0,0,0,0,0,0,0,0,0,0,0,0,0,0,0,0,0,0,0,0,0,0,0,0,0,0,0,0,0,0,0,0,0,0,0,1.3443,1.3443,0,1.3415,1.3415,1.3415,1.337,1.3369,1.3368,1.3368,1.3339,1.3339,1.3339,0,0,0,0,0,0,0,0,0,0,0,0,0,1.3456,1.3456,1.3443,1.3443,1.3442,1.3415,1.3415,1.3415,1.337,1.3369,1.3368,1.3367,1.3339,1.3339,1.3339,0,0,0,0,0,0,0,0,0,0,0,0,0,1.3442,1.3456,1.3443,1.3417,1.3414,1.3416,1.3415,1.3415,1.337,1.3369,1.3368,1.3367,1.3339,1.3339,1.3339,1.3363,0,0,1.3339,1.3339,0,0,0,0,0,0,0,0,1.3442,1.3441,1.3421,1.3419,1.3416,1.3395,1.3409,1.3397,1.3371,1.3387,1.3368,1.3366,1.3358,1.3357,1.3354,1.3362,1.3361,1.3339,1.3339,1.3339,1.3339,0,0,0,0,0,0,0,1.3443,1.3442,1.3432,1.3421,1.3418,1.3406,1.3403,1.3407,1.338,1.3386,1.3382,1.338,1.3357,1.3354,1.3353,1.336,1.3339,1.3339,1.3339,1.3339,1.3384,1.3385,0,0,0,0,0,0,1.3449,1.3443,1.3433,1.3431,1.3426,1.3407,1.3403,1.3403,1.338,1.3375,1.3381,1.3378,1.3355,1.3353,1.3352,1.3378,1.3339,1.3339,1.3339,1.3383,1.3384,1.3386,0,0,0,0,0,0,1.3449,1.3448,1.3434,1.3436,1.3434,1.3408,1.3408,1.3403,1.34,1.3376,1.3371,1.3383,1.3354,1.3352,1.336,1.3376,1.3339,1.3339,1.3382,1.3383,1.3385,1.343,0,0,0,0,0,0,1.345,1.3448,1.3458,1.3437,1.3434,1.3444,1.3409,1.3403,1.3401,1.3396,1.3377,1.3373,1.3353,1.336,1.336,1.3375,1.3339,1.338,1.3382,1.3385,1.3427,1.3433,1.3439,0,0,0,0,0,1.345,1.3472,1.3459,1.3458,1.3445,1.3445,1.3443,1.342,1.3402,1.3411,1.3395,1.3373,1.3374,1.3362,1.3361,1.3376,1.3379,1.3382,1.3384,1.3425,1.3432,1.3438,0,0,0,0,0,0,1.3496,1.3469,1.3454,1.347,1.346,1.3437,1.3448,1.3429,1.3423,1.342,1.3391,1.3387,1.3398,1.3388,1.3374,1.3398,1.3373,1.3376,1.3404,1.3411,1.3417,1.3418,1.3339,0,0,0,0,0,1.3508,1.351,1.3486,1.3503,1.3498,1.3474,1.3473,1.3456,1.3444,1.344,1.3424,1.3414,1.3411,1.3411,1.3407,1.3425,1.342,1.3435,1.3441,1.3446,1.3449,1.3455,1.3462,1.3395,1.3395,1.3395,0,0,1.3533,1.3518,1.3521,1.3511,1.3502,1.3504,1.3471,1.3475,1.3476,1.344,1.3447,1.3435,1.3421,1.3434,1.3439,1.3426,1.3466,1.345,1.3454,1.3453,1.3459,1.3465,1.3471,1.3397,1.3396,1.3396,0,0,1.3579,1.3569,1.358,1.3571,1.3556,1.354,1.3543,1.3523,1.3513,1.3519,1.3492,1.3493,1.349,1.3481,1.3476,1.3516,1.3496,1.3516,1.3546,1.3553,1.3558,1.3563,1.3576,1.3581,1.3519,1.3519,1.3519,0,1.3611,1.3614,1.3589,1.3594,1.359,1.3557,1.3568,1.356,1.3546,1.3543,1.3529,1.3523,1.3512,1.3521,1.3531,1.3528,1.353,1.3518,1.356,1.3564,1.3568,1.358,1.3585,1.3521,1.3521,1.3521,1.3521,0,1.3654,1.3656,1.3667,1.3653,1.365,1.3659,1.3634,1.3634,1.3616,1.3601,1.3607,1.3592,1.3584,1.3585,1.3568,1.3591,1.3583,1.3565,1.3539,1.3577,1.3588,1.3592,1.3525,1.3524,1.3523,1.3523,0,0,1.3729,1.37,1.3704,1.3697,1.3678,1.3678,1.3685,1.3677,1.3677,1.3667,1.3671,1.3668,1.3651,1.3645,1.3627,1.3633,1.3664,1.3613,1.3612,1.3622,1.3687,1.3701,1.3707,1.3651,1.3652,1.3652,1.3688,0,1.377,1.3779,1.3756,1.377,1.3771,1.374,1.3745,1.3733,1.3719,1.3717,1.37,1.3699,1.3676,1.3672,1.3677,1.366,1.3677,1.3657,1.3653,1.3653,1.3656,1.3712,1.3727,1.3761,1.3692,1.3693,1.3693,0,1.382,1.3812,1.3827,1.3805,1.3805,1.381,1.38,1.3799,1.3785,1.3773,1.3766,1.3745,1.3748,1.3724,1.3728,1.3714,1.3711,1.3702,1.3703,1.3701,1.3675,1.3711,1.3772,1.3777,1.37,1.3699,1.3699,0,1.3871,1.3865,1.3872,1.3867,1.3843,1.3847,1.3837,1.3821,1.3817,1.3809,1.3806,1.3798,1.3793,1.3787,1.3763,1.3748,1.3769,1.3743,1.3758,1.3759,1.3764,1.3764,1.3824,1.3764,1.3764,1.3763,1.3763,0,1.3919,1.3929,1.3895,1.3899,1.3909,1.3882,1.3892,1.3878,1.3865,1.3865,1.3838,1.3839,1.3808,1.3805,1.3787,1.3792,1.379,1.378,1.3775,1.3782,1.3783,1.3779,1.3776,1.3765,1.3764,1.3764,1.3764,0,1.3978,1.3956,1.3961,1.3938,1.3932,1.394,1.3919,1.3921,1.3905,1.3906,1.3905,1.3878,1.3874,1.385,1.3839,1.3827,1.3837,1.3828,1.3842,1.3839,1.3855,1.3854,1.3914,1.392,1.3857,1.3858,1.3858,0,1.401,1.4016,1.3993,1.3991,1.3983,1.3981,1.3976,1.395,1.3946,1.3929,1.3934,1.3927,1.392,1.3913,1.3893,1.3884,1.3874,1.3896,1.3872,1.3879,1.3873,1.3872,1.3872,1.3901,1.3901,1.3902,1.3903,0,1.4068,1.4056,1.4051,1.4042,1.4038,1.403,1.402,1.402,1.399,1.3987,1.3982,1.3977,1.3965,1.3958,1.3946,1.3935,1.3913,1.391,1.3913,1.392,1.3927,1.3922,1.3855,1.3909,1.3908,1.3908,1.3907,1.3907,1.4113,1.4117,1.4101,1.4096,1.4085,1.4076,1.4077,1.406,1.4056,1.4045,1.4029,1.4025,1.4009,1.399,1.3981,1.3977,1.3965,1.3969,1.397,1.3972,1.3975,1.3929,1.3975,1.3974,1.3974,1.3974,1.3974,0,1.4169,1.4157,1.4152,1.4139,1.4135,1.4115,1.4102,1.41,1.4097,1.4084,1.4078,1.4071,1.4063,1.4042,1.4032,1.4033,1.4023,1.4031,1.403,1.4028,1.3987,1.3985,1.4039,1.4039,1.4039,1.4039,1.4039,1.4039,1.4197,1.4202,1.4188,1.4187,1.4175,1.4171,1.4165,1.4156,1.4146,1.4139,1.4133,1.4119,1.4102,1.409,1.4082,1.4076,1.4073,1.4085,1.4075,1.4037,1.4031,1.4025,1.4023,1.4084,1.4085,1.4116,1.4116,1.4117]}]]